Hourly Data Report for April 02, 2017

CLYDE RIVER A
NUNAVUT

70°29'09.000" N
68°31'01.000" W
26.50 m
2400804
71090
YCY

Download Data

Hourly Data (April 2017)
Hourly Data Report for April 2, 2017
TIME
LST
Temp Definition
°C
Dew Point Definition
°C
Rel Hum Definition
%
Precip. Amount Definition
mm

Wind Dir Definition
10's deg

Wind Spd Definition
km/h
Visibility Definition
km
Stn Press Definition
kPa
Hmdx Definition


Wind Chill Definition


Weather Definition


00:00 -20.4 -26.4 60 0.0 28 8 16.1 101.49   -27 LegendNANA
01:00 -23.1 -27.8 66 0.0   0 16.1 101.48     LegendNANA
02:00 -23.8 -27.5 72 0.0 21 5 16.1 101.49   -29 LegendNANA
03:00 -22.9 -27.5 67 0.0 25 11 16.1 101.46   -31 LegendNANA
04:00 -24.5 -29.0 67 0.0 29 5 16.1 101.43   -29 LegendNANA
05:00 -23.4 -27.9 67 0.0 25 8 16.1 101.39   -30 LegendNANA
06:00 -22.5 -28.0 62 0.0 LegendMM 4 16.1 101.38   -26 LegendNANA
07:00 -23.3 -28.3 64 0.0 LegendMM 4 16.1 101.37   -27 LegendNANA
08:00 -22.4 -26.5 70 0.0 25 11 16.1 101.34   -31 LegendNANA
09:00 -21.0 -25.1 70 0.0 25 8 16.1 101.29   -27 LegendNANA
10:00 -18.6 -23.9 64 0.0 28 4 16.1 101.22   -22 LegendNANA
11:00 -18.1 -21.8 73 0.0 11 5 16.1 101.17   -22 LegendNANA
12:00 -17.9 -21.1 77 0.0 2 5 16.1 101.12   -22 LegendNANA
13:00 -15.7 -19.7 72 0.0 26 5 16.1 101.07   -19 LegendNANA
14:00 -15.5 -20.4 66 0.0 26 8 16.1 101.03   -21 LegendNANA
15:00 -13.8 -19.4 63 0.0 24 4 16.1 101.02   -17 LegendNANA
16:00 -14.5 -19.2 68 0.0 35 4 16.1 101.01   -17 LegendNANA
17:00 -16.1 -20.6 69 0.0 29 9 16.1 101.03   -22 LegendNANA
18:00 -16.8 -21.2 69 0.0 LegendMM 4 16.1 101.01   -20 LegendNANA
19:00 -17.5 -21.5 71 0.0   0 16.1 100.99     LegendNANA
20:00 -18.2 -22.0 73 0.0 26 8 16.1 100.99   -24 LegendNANA
21:00 -17.5 -22.9 64 0.0 30 5 16.1 100.96   -21 LegendNANA
22:00 -19.7 -23.8 70 0.0 25 8 16.1 100.93   -26 LegendNANA
23:00 -19.4 -23.5 70 0.0 25 9 16.1 100.90   -26 LegendNANA

Notes on Data Quality.

Legend

  • E = Estimated
  • M = Missing
  • NA = Not Available*
  • [empty] = Indicates an unobserved value
Date modified: